[[{"header":{"parameterUnit":"m.s-1","parameterCategory":1,"la1":30.2991,"la2":30.254,"lo1":-89.0895,"lo2":-89.0444,"dy":0.0017,"dx":0.0017,"nx":28,"ny":28,"refTime":"2024-06-20T03:00:00:Z","depth":0,"parameterNumber":2,"parameterNumberName":"U-component_of_WINDS"},"data":[0,0,0,0,0,0,0,0,0,0,0,0,0,0,0,0,0,0,0,0,0,0,0,0,0,0,0,0,0,0,0,0,0,0,0,0,0,0,0,0,0,0,0,0,0,0,0,0,0,0,0,0,0,0,0,0,0,0,-7.112,-7.112,0,-7.1102,-7.1102,-7.1102,-7.0919,-7.0914,-7.091,-7.0905,-7.0888,-7.0892,-7.0896,0,0,0,0,0,0,0,0,0,0,0,0,0,-7.0995,-7.0998,-7.112,-7.112,-7.1119,-7.1103,-7.1102,-7.1102,-7.092,-7.0914,-7.0909,-7.0903,-7.0887,-7.0891,-7.0896,0,0,0,0,0,0,0,0,0,0,0,0,0,-7.1021,-7.0999,-7.112,-7.1026,-7.1018,-7.1103,-7.1102,-7.1102,-7.0921,-7.0914,-7.0907,-7.0901,-7.0885,-7.0891,-7.0897,-7.107,0,0,-7.0914,-7.0917,0,0,0,0,0,0,0,0,-7.102,-7.1026,-7.104,-7.1033,-7.1023,-7.1006,-7.1052,-7.1091,-7.0923,-7.0958,-7.0905,-7.0897,-7.0933,-7.0934,-7.0946,-7.1069,-7.1068,-7.0915,-7.0918,-7.0921,-7.0922,0,0,0,0,0,0,0,-7.1018,-7.1025,-7.1113,-7.1041,-7.1031,-7.0985,-7.0981,-7.1058,-7.0984,-7.0954,-7.0941,-7.0941,-7.0927,-7.0941,-7.0944,-7.1068,-7.0915,-7.092,-7.0923,-7.0925,-7.1333,-7.134,0,0,0,0,0,0,-7.1029,-7.1025,-7.1113,-7.1112,-7.1005,-7.0993,-7.0989,-7.1018,-7.0983,-7.0971,-7.0947,-7.0933,-7.0935,-7.0938,-7.0943,-7.1144,-7.0921,-7.0926,-7.0929,-7.1326,-7.1334,-7.1342,0,0,0,0,0,0,-7.1027,-7.1039,-7.1114,-7.1065,-7.1071,-7.1003,-7.1038,-7.1022,-7.1035,-7.0978,-7.0963,-7.0975,-7.0929,-7.0935,-7.104,-7.1141,-7.0929,-7.0934,-7.1317,-7.1328,-7.1338,-7.1547,0,0,0,0,0,0,-7.1024,-7.1039,-7.1104,-7.1068,-7.1075,-7.1212,-7.1044,-7.1026,-7.1046,-7.1027,-7.1,-7.0989,-7.0924,-7.1032,-7.1046,-7.1145,-7.0938,-7.1307,-7.1322,-7.1335,-7.1531,-7.1564,-7.1592,0,0,0,0,0,-7.1021,-7.1164,-7.1108,-7.112,-7.1154,-7.1218,-7.1221,-7.1144,-7.1055,-7.112,-7.1082,-7.099,-7.1128,-7.1045,-7.1058,-7.1161,-7.1301,-7.1318,-7.1334,-7.1517,-7.1558,-7.1592,0,0,0,0,0,0,-7.1213,-7.1157,-7.1095,-7.1231,-7.1231,-7.1187,-7.1266,-7.1189,-7.1214,-7.1195,-7.1098,-7.1094,-7.1214,-7.1197,-7.1106,-7.1327,-7.1198,-7.1218,-7.1333,-7.1371,-7.1401,-7.1402,-7.0943,0,0,0,0,0,-7.1272,-7.1328,-7.1275,-7.14,-7.1403,-7.1336,-7.136,-7.13,-7.1296,-7.1295,-7.1265,-7.1265,-7.1308,-7.1338,-7.1375,-7.1528,-7.1519,-7.1605,-7.1636,-7.1661,-7.168,-7.176,-7.1798,-7.1397,-7.1397,-7.1397,0,0,-7.1393,-7.1369,-7.141,-7.1438,-7.1431,-7.1491,-7.1336,-7.1407,-7.1451,-7.1305,-7.1403,-7.1382,-7.1375,-7.1505,-7.156,-7.1495,-7.1789,-7.1682,-7.1703,-7.1708,-7.1781,-7.1819,-7.1853,-7.1408,-7.1406,-7.1404,0,0,-7.1644,-7.1631,-7.1734,-7.173,-7.1721,-7.1675,-7.17,-7.1669,-7.1649,-7.1745,-7.1638,-7.1689,-7.1765,-7.1764,-7.1774,-7.2027,-7.1943,-7.2042,-7.2202,-7.2282,-7.2313,-7.2341,-7.2431,-7.2465,-7.206,-7.2061,-7.2061,0,-7.1795,-7.1882,-7.1796,-7.1874,-7.189,-7.1762,-7.1865,-7.1866,-7.187,-7.1884,-7.181,-7.1903,-7.189,-7.2018,-7.208,-7.2092,-7.2118,-7.2044,-7.2316,-7.2342,-7.2367,-7.2452,-7.2486,-7.2073,-7.2072,-7.207,-7.2069,0,-7.2069,-7.2131,-7.2215,-7.2222,-7.2247,-7.2338,-7.2266,-7.2302,-7.2241,-7.2203,-7.2303,-7.2282,-7.2313,-7.2339,-7.228,-7.246,-7.2419,-7.2333,-7.2201,-7.2418,-7.2497,-7.2529,-7.209,-7.2086,-7.2082,-7.2079,0,0,-7.244,-7.24,-7.2432,-7.2434,-7.2415,-7.2462,-7.2547,-7.2576,-7.2609,-7.2617,-7.2686,-7.2754,-7.2673,-7.2685,-7.2624,-7.2695,-7.2897,-7.2598,-7.2597,-7.2655,-7.3095,-7.3161,-7.32,-7.2841,-7.2847,-7.2852,-7.3096,0,-7.2682,-7.2825,-7.2751,-7.2903,-7.296,-7.284,-7.2914,-7.2911,-7.2878,-7.2921,-7.2885,-7.2935,-7.2825,-7.2831,-7.2895,-7.2859,-7.2984,-7.284,-7.2905,-7.2909,-7.2911,-7.3241,-7.331,-7.3541,-7.3126,-7.3131,-7.3135,0,-7.2983,-7.3004,-7.3163,-7.3134,-7.3155,-7.3223,-7.3245,-7.3288,-7.3282,-7.3253,-7.3267,-7.3191,-7.3272,-7.3143,-7.3255,-7.3159,-7.3181,-7.3168,-7.3175,-7.3178,-7.3035,-7.3254,-7.3613,-7.3648,-7.3182,-7.3178,-7.3175,0,-7.3239,-7.3307,-7.341,-7.3415,-7.3385,-7.3436,-7.3425,-7.3413,-7.3436,-7.3455,-7.3469,-7.3498,-7.3514,-7.3538,-7.3471,-7.3383,-7.3593,-7.3458,-7.3572,-7.3574,-7.3621,-7.3619,-7.399,-7.3636,-7.3635,-7.3635,-7.3634,0,-7.3518,-7.3619,-7.3524,-7.3588,-7.3699,-7.3614,-7.3725,-7.3702,-7.3692,-7.375,-7.3647,-7.3704,-7.3612,-7.3659,-7.3608,-7.3709,-7.3717,-7.3696,-7.3681,-7.3706,-7.3708,-7.3719,-7.3701,-7.3644,-7.3642,-7.364,-7.3638,0,-7.3822,-7.3762,-7.3867,-7.383,-7.3823,-7.3907,-7.3874,-7.3932,-7.3893,-7.3967,-7.3979,-7.3918,-7.3968,-7.3904,-7.3949,-7.3914,-7.4052,-7.4013,-7.4054,-7.4043,-7.4161,-7.4151,-7.4551,-7.46,-7.4215,-7.4219,-7.4222,0,-7.4003,-7.4079,-7.405,-7.4081,-7.4077,-7.4128,-7.4151,-7.4071,-7.4099,-7.4099,-7.4157,-7.4199,-7.4228,-7.4314,-7.4274,-7.4308,-7.4269,-7.4407,-7.4273,-7.4295,-7.4271,-7.4268,-7.4275,-7.4434,-7.4439,-7.4443,-7.4446,0,-7.4332,-7.4299,-7.4336,-7.4364,-7.4395,-7.4412,-7.4422,-7.4454,-7.4369,-7.4407,-7.4457,-7.448,-7.4526,-7.4569,-7.4592,-7.4581,-7.4501,-7.4488,-7.4516,-7.4542,-7.4563,-7.4554,-7.4129,-7.4479,-7.4476,-7.4474,-7.4472,-7.447,-7.458,-7.4642,-7.4632,-7.4677,-7.4676,-7.4688,-7.4741,-7.4708,-7.4749,-7.478,-7.473,-7.4794,-7.4787,-7.4809,-7.4808,-7.4857,-7.4797,-7.4838,-7.4849,-7.486,-7.4878,-7.4556,-7.4861,-7.486,-7.4859,-7.4858,-7.4857,0,-7.4903,-7.4891,-7.4934,-7.4951,-7.4987,-7.4908,-7.4916,-7.4951,-7.5008,-7.5009,-7.504,-7.5099,-7.514,-7.5104,-7.5138,-7.5185,-7.5149,-7.5196,-7.5192,-7.5191,-7.4929,-7.4902,-7.5225,-7.5225,-7.5225,-7.5225,-7.5225,-7.5225,-7.5076,-7.5177,-7.5143,-7.5243,-7.5229,-7.5291,-7.5302,-7.5313,-7.5313,-7.5383,-7.5417,-7.5393,-7.5379,-7.5412,-7.5447,-7.5435,-7.5453,-7.5514,-7.549,-7.5246,-7.5209,-7.5175,-7.5148,-7.5519,-7.5519,-7.5747,-7.5749,-7.5751]},{"header":{"parameterUnit":"m.s-1","parameterCategory":1,"la1":30.2991,"la2":30.254,"lo1":-89.0895,"lo2":-89.0444,"dy":0.0017,"dx":0.0017,"nx":28,"ny":28,"refTime":"2024-06-20T03:00:00:Z","depth":0,"parameterNumber":3,"parameterNumberName":"V-component_of_WINDS"},"data":[0,0,0,0,0,0,0,0,0,0,0,0,0,0,0,0,0,0,0,0,0,0,0,0,0,0,0,0,0,0,0,0,0,0,0,0,0,0,0,0,0,0,0,0,0,0,0,0,0,0,0,0,0,0,0,0,0,0,-1.5522,-1.5522,0,-1.5524,-1.5524,-1.5524,-1.5502,-1.5501,-1.5501,-1.55,-1.5504,-1.5505,-1.5505,0,0,0,0,0,0,0,0,0,0,0,0,0,-1.5499,-1.55,-1.5522,-1.5522,-1.5522,-1.5524,-1.5524,-1.5524,-1.5502,-1.5501,-1.5501,-1.55,-1.5504,-1.5505,-1.5505,0,0,0,0,0,0,0,0,0,0,0,0,0,-1.5506,-1.55,-1.5522,-1.5511,-1.551,-1.5524,-1.5524,-1.5524,-1.5502,-1.5501,-1.55,-1.55,-1.5503,-1.5504,-1.5505,-1.5529,0,0,-1.5508,-1.5509,0,0,0,0,0,0,0,0,-1.5506,-1.5507,-1.5513,-1.5512,-1.5511,-1.5512,-1.5517,-1.5526,-1.5502,-1.5505,-1.55,-1.5499,-1.5507,-1.5508,-1.551,-1.553,-1.553,-1.5509,-1.5509,-1.551,-1.551,0,0,0,0,0,0,0,-1.5505,-1.5507,-1.5522,-1.5513,-1.5512,-1.5506,-1.5506,-1.5519,-1.5511,-1.5505,-1.5503,-1.5504,-1.5507,-1.5509,-1.551,-1.553,-1.5508,-1.5509,-1.551,-1.551,-1.5567,-1.5568,0,0,0,0,0,0,-1.5506,-1.5506,-1.5522,-1.5522,-1.5506,-1.5507,-1.5507,-1.5512,-1.5511,-1.551,-1.5505,-1.5503,-1.5508,-1.5509,-1.551,-1.5538,-1.551,-1.551,-1.5511,-1.5566,-1.5567,-1.5568,0,0,0,0,0,0,-1.5506,-1.5508,-1.5522,-1.5514,-1.5515,-1.5509,-1.5514,-1.5513,-1.5516,-1.5511,-1.551,-1.5509,-1.5508,-1.5509,-1.5524,-1.5537,-1.5511,-1.5512,-1.5565,-1.5567,-1.5568,-1.5593,0,0,0,0,0,0,-1.5505,-1.5508,-1.5517,-1.5514,-1.5516,-1.5536,-1.5515,-1.5513,-1.5517,-1.5515,-1.5514,-1.5514,-1.5507,-1.5523,-1.5525,-1.5538,-1.5513,-1.5564,-1.5566,-1.5568,-1.5591,-1.5595,-1.5598,0,0,0,0,0,-1.5504,-1.5525,-1.5517,-1.552,-1.5527,-1.5537,-1.5538,-1.553,-1.5518,-1.5527,-1.5524,-1.5514,-1.5535,-1.5525,-1.5527,-1.5541,-1.5563,-1.5565,-1.5567,-1.5589,-1.5594,-1.5598,0,0,0,0,0,0,-1.553,-1.5524,-1.5516,-1.5536,-1.5537,-1.5534,-1.5545,-1.5535,-1.554,-1.5538,-1.5528,-1.5528,-1.5545,-1.5544,-1.5532,-1.5563,-1.5547,-1.555,-1.5563,-1.5568,-1.5571,-1.5571,-1.5513,0,0,0,0,0,-1.5538,-1.5546,-1.5541,-1.5559,-1.5559,-1.5552,-1.5556,-1.5549,-1.555,-1.5551,-1.5549,-1.555,-1.5557,-1.5562,-1.5569,-1.559,-1.5589,-1.56,-1.5604,-1.5607,-1.561,-1.562,-1.5625,-1.5575,-1.5575,-1.5575,0,0,-1.5555,-1.5552,-1.5558,-1.5564,-1.5564,-1.5572,-1.5553,-1.5563,-1.557,-1.5553,-1.5567,-1.5565,-1.5566,-1.5584,-1.5592,-1.5584,-1.5623,-1.561,-1.5613,-1.5614,-1.5623,-1.5628,-1.5632,-1.5577,-1.5576,-1.5576,0,0,-1.5589,-1.5589,-1.5603,-1.5603,-1.5602,-1.5597,-1.56,-1.5598,-1.5596,-1.5609,-1.5596,-1.5603,-1.5616,-1.5617,-1.5619,-1.5652,-1.5642,-1.5654,-1.5674,-1.5684,-1.5688,-1.5691,-1.5702,-1.5707,-1.5656,-1.5656,-1.5656,0,-1.561,-1.5623,-1.5612,-1.5622,-1.5625,-1.5608,-1.5622,-1.5623,-1.5625,-1.5627,-1.5618,-1.5632,-1.5632,-1.565,-1.5657,-1.566,-1.5663,-1.5654,-1.5688,-1.5691,-1.5694,-1.5705,-1.5709,-1.5658,-1.5658,-1.5658,-1.5657,0,-1.5648,-1.5657,-1.5668,-1.5669,-1.5673,-1.5686,-1.5676,-1.5681,-1.5673,-1.5669,-1.5682,-1.5681,-1.5686,-1.5689,-1.5682,-1.5706,-1.57,-1.569,-1.5674,-1.5701,-1.571,-1.5714,-1.566,-1.5659,-1.5659,-1.5659,0,0,-1.5701,-1.5694,-1.5699,-1.5698,-1.5696,-1.5702,-1.5713,-1.5717,-1.5721,-1.5723,-1.5732,-1.5742,-1.5731,-1.5733,-1.5726,-1.5735,-1.576,-1.5723,-1.5723,-1.573,-1.5784,-1.5793,-1.5798,-1.5753,-1.5754,-1.5754,-1.5784,0,-1.5735,-1.5753,-1.5742,-1.5762,-1.577,-1.5753,-1.5762,-1.5762,-1.5757,-1.5763,-1.5758,-1.5765,-1.5751,-1.5752,-1.5759,-1.5755,-1.5771,-1.5753,-1.5761,-1.5762,-1.5762,-1.5803,-1.5812,-1.584,-1.5788,-1.5789,-1.5789,0,-1.5777,-1.5778,-1.5799,-1.5793,-1.5796,-1.5805,-1.5806,-1.5812,-1.581,-1.5806,-1.5808,-1.5798,-1.5808,-1.5791,-1.5805,-1.5793,-1.5795,-1.5794,-1.5794,-1.5795,-1.5777,-1.5805,-1.5849,-1.5854,-1.5795,-1.5795,-1.5794,0,-1.5813,-1.582,-1.5833,-1.5833,-1.5827,-1.5833,-1.5831,-1.5829,-1.5831,-1.5833,-1.5834,-1.5837,-1.5839,-1.5841,-1.5832,-1.5821,-1.5847,-1.583,-1.5844,-1.5844,-1.5851,-1.5851,-1.5897,-1.5852,-1.5852,-1.5852,-1.5852,0,-1.5852,-1.5865,-1.5849,-1.5857,-1.5871,-1.5858,-1.5872,-1.5868,-1.5865,-1.5872,-1.5858,-1.5864,-1.5851,-1.5857,-1.585,-1.5862,-1.5863,-1.586,-1.5858,-1.5861,-1.5861,-1.5863,-1.5861,-1.5853,-1.5853,-1.5853,-1.5852,0,-1.5895,-1.5885,-1.5898,-1.589,-1.5888,-1.5899,-1.5892,-1.5899,-1.5892,-1.5901,-1.5902,-1.5892,-1.5897,-1.5888,-1.5893,-1.5888,-1.5904,-1.5899,-1.5905,-1.5903,-1.5918,-1.5916,-1.5967,-1.5972,-1.5924,-1.5925,-1.5925,0,-1.5921,-1.593,-1.5923,-1.5926,-1.5924,-1.5929,-1.5931,-1.5918,-1.592,-1.5918,-1.5925,-1.5929,-1.5931,-1.594,-1.5934,-1.5937,-1.5931,-1.5949,-1.5932,-1.5935,-1.5932,-1.5931,-1.5932,-1.5953,-1.5953,-1.5954,-1.5954,0,-1.5967,-1.5961,-1.5964,-1.5965,-1.5967,-1.5967,-1.5967,-1.597,-1.5956,-1.596,-1.5964,-1.5966,-1.5969,-1.5973,-1.5974,-1.5972,-1.5961,-1.5959,-1.5962,-1.5966,-1.5969,-1.5967,-1.5914,-1.5958,-1.5958,-1.5958,-1.5957,-1.5957,-1.6002,-1.6009,-1.6005,-1.6008,-1.6006,-1.6005,-1.601,-1.6004,-1.6007,-1.6008,-1.6,-1.6006,-1.6003,-1.6003,-1.6001,-1.6006,-1.5998,-1.6003,-1.6004,-1.6006,-1.6008,-1.5968,-1.6006,-1.6006,-1.6006,-1.6006,-1.6005,0,-1.6048,-1.6043,-1.6047,-1.6045,-1.6047,-1.6035,-1.6033,-1.6036,-1.6041,-1.6039,-1.604,-1.6045,-1.6048,-1.6041,-1.6043,-1.6047,-1.6042,-1.6048,-1.6048,-1.6048,-1.6015,-1.6012,-1.6052,-1.6052,-1.6052,-1.6052,-1.6052,-1.6052,-1.6072,-1.6083,-1.6076,-1.6085,-1.608,-1.6085,-1.6085,-1.6084,-1.6081,-1.6087,-1.6089,-1.6083,-1.6079,-1.608,-1.6082,-1.6079,-1.6081,-1.6089,-1.6085,-1.6055,-1.605,-1.6046,-1.6043,-1.6089,-1.6089,-1.6117,-1.6117,-1.6117]}]]